Date,TemperatureHighF,TemperatureAvgF,TemperatureLowF,DewpointHighF,DewpointAvgF,DewpointLowF,HumidityHigh,HumidityAvg,HumidityLow,PressureMaxIn,PressureMinIn,WindSpeedMaxMPH,WindSpeedAvgMPH,GustSpeedMaxMPH,PrecipitationSumIn
2013-4-1,72,52,39,53,44,34,88,75,45,30.40,30.22,8,1,8,0.00
2013-4-2,61,53,49,50,47,44,87,80,65,30.43,30.38,7,0,7,0.00
2013-4-3,66,55,48,50,47,44,87,76,55,30.42,30.18,4,0,4,0.00
2013-4-4,59,53,49,54,49,45,91,86,74,30.18,29.89,12,1,12,0.33
2013-4-5,60,52,48,52,48,45,91,85,67,30.14,29.96,13,2,13,1.10
2013-4-6,54,48,44,48,43,40,89,81,65,30.18,29.95,17,2,17,0.81
2013-4-7,52,44,40,45,41,38,92,88,73,30.14,29.71,9,1,9,0.39
2013-4-8,56,46,40,48,41,36,89,82,63,30.51,30.14,7,1,7,0.01
2013-4-9,57,45,36,47,40,33,91,82,65,30.57,30.42,3,0,3,0.00
2013-4-10,57,52,46,50,46,39,89,80,63,30.51,30.19,14,3,14,0.20
2013-4-11,62,49,38,43,38,33,86,69,41,30.53,30.42,8,1,8,0.20
2013-4-12,51,43,36,42,38,32,89,82,64,30.42,29.98,9,1,9,0.31
2013-4-13,46,41,37,42,37,33,90,85,78,30.25,30.07,11,2,11,0.20
2013-4-14,53,44,38,42,38,36,91,81,59,30.26,30.16,6,1,6,0.20
2013-4-15,56,45,37,43,37,34,89,76,49,30.40,30.17,7,1,7,0.20
2013-4-16,60,47,39,42,36,32,87,70,40,30.63,30.40,7,1,7,0.20
2013-4-17,63,48,38,43,37,32,82,67,38,30.68,30.63,7,1,7,0.20
2013-4-18,57,48,42,46,42,35,87,78,62,30.68,30.47,8,1,8,0.20
2013-4-19,56,51,48,50,46,43,91,85,76,30.48,30.30,11,2,11,0.32
2013-4-20,59,51,47,50,44,41,85,78,67,30.52,30.45,8,2,8,0.20
2013-4-21,58,49,42,49,43,38,88,80,61,30.58,30.45,9,1,9,0.20
2013-4-22,64,49,38,46,38,32,90,71,38,30.71,30.58,5,1,5,0.20
2013-4-23,67,50,36,42,34,24,84,58,27,30.65,30.43,7,1,7,0.20
2013-4-24,69,47,37,44,35,31,82,67,31,30.54,30.29,5,1,5,0.00
2013-4-25,74,56,40,47,41,34,81,59,32,30.39,30.26,8,1,8,0.00
2013-4-26,75,56,40,52,42,34,89,64,28,30.47,30.38,5,1,5,0.00
2013-4-27,62,53,48,48,43,37,83,69,41,30.47,30.41,9,1,9,0.02
2013-4-28,64,54,49,50,45,42,88,73,49,30.45,30.20,9,1,9,0.04
2013-4-29,59,50,42,46,39,32,86,67,44,30.40,30.19,13,3,13,0.00
2013-4-30,60,44,37,40,34,28,81,67,34,30.66,30.40,12,2,12,0.00